Change the Weather History Date:

Monday, October 29, 2012

  Actual Average Record
Temperature  
Mean Temperature 16 °F -  
Max Temperature 21 °F 16 °F 37 °F (2002)
Min Temperature 12 °F 2 °F -31 °F (1971)
Degree Days  
Heating Degree Days 48    
Moisture  
Dew Point 12 °F    
Average Humidity 86    
Maximum Humidity 93    
Minimum Humidity 74    
Precipitation  
Precipitation 0.07 in - - ()
Snow  
Snow 0.00 in - - ()
Snow Depth 4.00 in    
Sea Level Pressure  
Sea Level Pressure 30.03 in    
Wind  
Wind Speed 3 mph (WNW)    
Max Wind Speed 7 mph    
Max Gust Speed -    
Visibility 6 miles    
Events Snow    
Averages and records for this station are not official NWS values.
T = Trace of Precipitation, MM = Missing Value Source: NWS Daily Summary

Daily Weather History Graph

Daily Weather History Graph

Search for Another Location

Airport or City:

Trip Planner

Search our weather history database for the weather conditions in past years. The results will help you decide how hot, cold, wet, or windy it might be!

Date:

Astronomy

Oct. 29, 2012 Rise Set
Actual Time 9:50 AM AKDT 5:52 PM AKDT
Civil Twilight 8:55 AM AKDT 6:47 PM AKDT
Nautical Twilight 7:56 AM AKDT 7:46 PM AKDT
Astronomical Twilight 6:58 AM AKDT 8:43 PM AKDT
Moon 5:27 PM AKDT (10/29) 10:09 AM AKDT (10/29)
Length of Visible Light 9h 52m
Length of Day
8h 02m
Full, 100% of the Moon is Illuminated
Oct 29
Full
Nov 6
Last Quarter
Nov 13
New
Nov 20
First Quarter
Nov 28
Full

Hourly Weather History & Observations

Time (AKDT) Temp. Windchill Dew Point Humidity Pressure Visibility Wind Dir Wind Speed Gust Speed Precip Events Conditions
12:52 AM 12.0 °F 5.9 °F 9.0 °F 88% 30.13 in 10.0 mi NE 3.5 mph - N/A   Overcast
1:52 AM 12.9 °F 6.9 °F 9.0 °F 84% 30.12 in 10.0 mi NNE 3.5 mph - N/A   Overcast
2:52 AM 12.9 °F 6.9 °F 9.0 °F 84% 30.09 in 10.0 mi NE 3.5 mph - N/A   Overcast
3:34 AM 12.2 °F - 10.4 °F 92% 30.06 in 1.8 mi Calm Calm - 0.00 in Snow Light Snow
3:52 AM 12.9 °F - 10.0 °F 88% 30.09 in 0.8 mi Calm Calm - 0.01 in Snow Light Snow
4:00 AM 12.2 °F - 10.4 °F 92% 30.06 in 1.0 mi Calm Calm - 0.00 in Snow Light Snow
4:44 AM 14.0 °F - 10.4 °F 86% 30.04 in 1.2 mi Calm Calm - 0.03 in Snow Light Snow
4:52 AM 14.0 °F - 10.0 °F 84% 30.06 in 1.2 mi Calm Calm - 0.03 in Snow Light Snow
5:05 AM 14.0 °F - 10.4 °F 86% 30.04 in 2.0 mi Calm Calm - 0.00 in Snow Light Snow
5:16 AM 14.0 °F - 10.4 °F 86% 30.04 in 1.5 mi Calm Calm - 0.00 in Snow Light Snow
5:24 AM 14.0 °F - 10.4 °F 86% 30.04 in 1.5 mi Calm Calm - 0.00 in Snow Light Snow
5:41 AM 14.0 °F - 10.4 °F 86% 30.03 in 1.2 mi Calm Calm - 0.01 in Snow Light Snow
5:52 AM 14.0 °F - 10.9 °F 88% 30.06 in 2.0 mi Calm Calm - 0.01 in Snow Light Snow
6:04 AM 14.0 °F - 10.4 °F 86% 30.03 in 1.8 mi Calm Calm - 0.00 in Snow Light Snow
6:19 AM 14.0 °F - 10.4 °F 86% 30.03 in 1.8 mi Calm Calm - 0.01 in Snow Light Snow
6:33 AM 14.0 °F - 10.4 °F 86% 30.03 in 2.0 mi Calm Calm - 0.01 in Snow Light Snow
6:52 AM 14.0 °F 8.2 °F 10.9 °F 88% 30.04 in 2.0 mi West 3.5 mph - 0.01 in Snow Light Snow
7:05 AM 14.0 °F - 10.4 °F 86% 30.02 in 3.0 mi Calm Calm - 0.00 in Snow Light Snow
7:28 AM 15.8 °F - 10.4 °F 79% 30.02 in 3.0 mi Calm Calm - 0.00 in Snow Light Snow
7:52 AM 14.0 °F - 10.9 °F 88% 30.04 in 10.0 mi Calm Calm - 0.00 in   Overcast
8:08 AM 14.0 °F 6.5 °F 10.4 °F 86% 30.01 in 10.0 mi NW 4.6 mph - N/A   Overcast
8:52 AM 14.0 °F 8.2 °F 10.0 °F 84% 30.03 in 10.0 mi WNW 3.5 mph - N/A   Overcast
9:04 AM 14.0 °F 6.5 °F 10.4 °F 86% 30.01 in 10.0 mi West 4.6 mph - N/A   Overcast
9:52 AM 15.1 °F 6.4 °F 10.9 °F 84% 30.03 in 10.0 mi West 5.8 mph - 0.00 in   Overcast
10:52 AM 16.0 °F 6.3 °F 12.0 °F 84% 30.03 in 10.0 mi West 6.9 mph - N/A   Overcast
11:52 AM 17.1 °F 8.7 °F 12.9 °F 84% 30.03 in 10.0 mi West 5.8 mph - N/A   Overcast
12:21 PM 17.6 °F 8.2 °F 14.0 °F 86% 30.00 in 3.0 mi West 6.9 mph - 0.00 in Snow Light Snow
12:26 PM 17.6 °F 9.3 °F 14.0 °F 86% 30.00 in 1.8 mi West 5.8 mph - 0.01 in Snow Light Snow
12:40 PM 17.6 °F 8.2 °F 12.2 °F 79% 30.00 in 3.0 mi West 6.9 mph - 0.01 in Snow Light Snow
12:49 PM 17.6 °F 8.2 °F 14.0 °F 86% 30.00 in 4.0 mi West 6.9 mph - 0.01 in Snow Light Snow
12:52 PM 17.1 °F 7.6 °F 14.0 °F 88% 30.02 in 9.0 mi West 6.9 mph - 0.01 in Snow Light Snow
1:41 PM 17.6 °F 10.7 °F 14.0 °F 86% 29.99 in 4.0 mi West 4.6 mph - 0.00 in Snow Light Snow
1:52 PM 18.0 °F 11.1 °F 14.0 °F 84% 30.01 in 6.0 mi West 4.6 mph - 0.00 in Snow Light Snow
2:52 PM 18.0 °F 9.8 °F 15.1 °F 88% 30.01 in 7.0 mi West 5.8 mph - 0.00 in Snow Light Snow
3:07 PM 17.6 °F 9.3 °F 15.8 °F 93% 29.99 in 8.0 mi West 5.8 mph - 0.00 in Snow Light Snow
3:52 PM 18.0 °F 8.7 °F 15.1 °F 88% 30.01 in 10.0 mi West 6.9 mph - 0.00 in   Mostly Cloudy
4:52 PM 19.0 °F - 16.0 °F 88% 30.01 in 10.0 mi Calm Calm - N/A   Overcast
5:52 PM 19.0 °F 13.9 °F 16.0 °F 88% 30.00 in 8.0 mi WNW 3.5 mph - 0.00 in   Overcast
6:52 PM 19.9 °F 13.4 °F 17.1 °F 89% 29.99 in 8.0 mi West 4.6 mph - 0.00 in Snow Light Snow
7:52 PM 19.9 °F 12.1 °F 17.1 °F 89% 30.00 in 10.0 mi West 5.8 mph - 0.00 in   Overcast
8:52 PM 19.9 °F 14.9 °F 16.0 °F 85% 30.00 in 10.0 mi West 3.5 mph - N/A   Overcast
9:52 PM 21.0 °F 16.2 °F 14.0 °F 74% 30.02 in 10.0 mi North 3.5 mph - N/A   Overcast
10:52 PM 19.9 °F - 14.0 °F 78% 30.04 in 10.0 mi Calm Calm - N/A   Overcast
11:52 PM 19.9 °F 13.4 °F 12.9 °F 74% 30.05 in 10.0 mi North 4.6 mph - N/A   Overcast